Overview Statistics Trail Chart Weather Telemetry Raw packets
 

This is the latest recevied weather packets stored in our database for station/object DB0OHL. If no packets are shown the sender has not sent any weather packets the latest 10 day(s).

<< 23 24 25 26 27 28 29 >>
Time Temp. Humidity Pressure Rain* Wind** Luminosity Snow
1777464356 17.78° C 45% 1024.8 hPa 0 mm - - -
1777463753 17.22° C 46% 1024.9 hPa 0 mm - - -
1777463150 17.22° C 44% 1024.9 hPa 0 mm - - -
1777462548 17.22° C 45% 1025.2 hPa 0 mm - - -
1777461945 17.22° C 44% 1024.9 hPa 0 mm - - -
1777461343 17.22° C 46% 1025.1 hPa 0 mm - - -
1777460740 16.67° C 45% 1025.2 hPa 0 mm - - -
1777460138 17.22° C 44% 1025.1 hPa 0 mm - - -
1777459535 17.22° C 45% 1025.2 hPa 0 mm - - -
1777458933 16.11° C 46% 1025.4 hPa 0 mm - - -
1777458330 16.11° C 46% 1025.3 hPa 0 mm - - -
1777457728 15.56° C 47% 1025.4 hPa 0 mm - - -
1777457125 15.56° C 46% 1025.4 hPa 0 mm - - -
1777456523 15.56° C 47% 1025.6 hPa 0 mm - - -
1777455920 15.56° C 47% 1025.5 hPa 0 mm - - -
1777455318 15.56° C 48% 1025.5 hPa 0 mm - - -
1777454715 15.56° C 50% 1025.5 hPa 0 mm - - -
1777454173 15.56° C 49% 1025.7 hPa 0 mm - - -
1777453570 15° C 50% 1025.9 hPa 0 mm - - -
1777452968 14.44° C 48% 1026 hPa 0 mm - - -
1777452365 14.44° C 50% 1026 hPa 0 mm - - -
1777451763 13.89° C 51% 1026.3 hPa 0 mm - - -
1777451160 13.89° C 52% 1026.1 hPa 0 mm - - -
1777450557 13.89° C 54% 1026.3 hPa 0 mm - - -
1777449955 13.33° C 55% 1026.3 hPa 0 mm - - -

* Rain latest hour (hover to see other rain measurements)
** Current wind speed in m/s (hover to see current wind gust speed)